Louisburg, NC

7:07 AM EDT on September 26, 2016 (GMT -0400)
Franklin County

Weather History for KLHZ - March, 2014

Change the Weather History Date:

Saturday, March 29, 2014

  Actual Average (KRDU) Record (KRDU)
Temperature  
Mean Temperature 64 °F 55 °F  
Max Temperature 68 °F 68 °F 94 °F (1907)
Min Temperature 60 °F 43 °F 20 °F (1966)
Degree Days  
Heating Degree Days 1 10  
Month to date heating degree days 405  
Since 1 July heating degree days 2977  
Cooling Degree Days 0 1  
Month to date cooling degree days 1  
Year to date cooling degree days 2  
Growing Degree Days 14 (Base 50)    
Moisture  
Dew Point 62 °F    
Average Humidity 91    
Maximum Humidity 94    
Minimum Humidity 83    
Precipitation  
Precipitation 1.27 in 0.13 in 2.65 in (1990)
Month to date precipitation 3.86  
Year to date precipitation 10.59  
Snow  
Snow 0.00 in 0.00 in 0.00 in (2002)
Month to date snowfall 0.5  
Since 1 July snowfall 6.0  
Snow Depth -    
Sea Level Pressure  
Sea Level Pressure 29.88 in    
Wind  
Wind Speed 2 mph (SSE)    
Max Wind Speed 10 mph    
Max Gust Speed 16 mph    
Visibility 5 miles    
Events Fog , Rain    
T = Trace of Precipitation, MM = Missing Value Source: NWS Daily Summary

Daily Weather History Graph

Daily Weather History Graph

Search for Another Location

Airport or City:

Trip Planner

Search our weather history database for the weather conditions in past years. The results will help you decide how hot, cold, wet, or windy it might be!

Date:

Astronomy

Mar. 29, 2014 Rise Set
Actual Time 7:03 AM EDT 7:32 PM EDT
Civil Twilight 6:38 AM EDT 7:58 PM EDT
Nautical Twilight 6:08 AM EDT 8:28 PM EDT
Astronomical Twilight 5:37 AM EDT 8:59 PM EDT
Moon 6:09 AM EDT (3/29) 6:36 PM EDT (3/29)
Length of Visible Light 13h 20m
Length of Day
12h 28m
Waning Crescent, 2% of the Moon is Illuminated
Mar 29
Waning Crescent
Mar 30
New
Apr 7
First Quarter
Apr 15
Full
Apr 22
Last Quarter

Hourly Weather History & Observations

Time (EDT) Temp. Dew Point Humidity Pressure Visibility Wind Dir Wind Speed Gust Speed Precip Events Conditions
12:15 AM 62.6 °F 60.8 °F 94% 30.14 in 4.0 mi Calm Calm - 0.01 in   Drizzle
12:35 AM 62.6 °F 60.8 °F 94% 30.14 in 4.0 mi Calm Calm - 0.02 in Rain Light Rain
12:55 AM 62.6 °F 60.8 °F 94% 30.13 in 4.0 mi Calm Calm - 0.04 in Rain Light Rain
1:15 AM 62.6 °F 60.8 °F 94% 30.13 in 2.0 mi Calm Calm - 0.02 in Rain Light Rain
1:35 AM 62.6 °F 59.0 °F 88% 30.12 in 1.2 mi Calm Calm - 0.04 in Rain Light Rain
1:55 AM 62.6 °F 60.8 °F 94% 30.11 in 1.0 mi Calm Calm - 0.07 in Rain Rain
2:15 AM 62.6 °F 59.0 °F 88% 30.11 in 1.2 mi Calm Calm - 0.05 in Rain Heavy Rain
2:35 AM 62.6 °F 59.0 °F 88% 30.10 in 1.5 mi Calm Calm - 0.09 in Rain Rain
2:55 AM 62.6 °F 59.0 °F 88% 30.09 in 1.5 mi Calm Calm - 0.11 in Rain Light Rain
3:15 AM 62.6 °F 59.0 °F 88% 30.08 in 1.0 mi Calm Calm - 0.02 in Rain Rain
3:35 AM 60.8 °F 59.0 °F 94% 30.07 in 0.8 mi Calm Calm - 0.03 in Rain Light Rain
3:55 AM 60.8 °F 59.0 °F 94% 30.06 in 0.8 mi Calm Calm - 0.04 in   Drizzle
4:15 AM 60.8 °F 59.0 °F 94% 30.05 in 0.5 mi Calm Calm - N/A   Light Drizzle
4:35 AM 60.8 °F 59.0 °F 94% 30.03 in 0.8 mi East 3.5 mph - 0.01 in   Drizzle
4:55 AM 60.8 °F 59.0 °F 94% 30.03 in 0.5 mi Calm Calm - 0.01 in Fog Fog
5:15 AM 60.8 °F 59.0 °F 94% 30.03 in 0.2 mi Calm Calm - N/A Fog Fog
5:35 AM 60.8 °F 59.0 °F 94% 30.03 in 0.5 mi Calm Calm - N/A Fog Fog
5:55 AM 60.8 °F 59.0 °F 94% 30.03 in 0.5 mi Calm Calm - N/A   Drizzle
6:15 AM 60.8 °F 59.0 °F 94% 30.04 in 0.8 mi Calm Calm - 0.01 in   Drizzle
6:35 AM 60.8 °F 59.0 °F 94% 30.04 in 2.0 mi Calm Calm - 0.02 in   Drizzle
6:55 AM 60.8 °F 59.0 °F 94% 30.04 in 2.0 mi Calm Calm - 0.04 in Rain Light Rain
7:15 AM 60.8 °F 59.0 °F 94% 30.03 in 1.0 mi Calm Calm - 0.03 in Rain Rain
7:35 AM 60.8 °F 59.0 °F 94% 30.03 in 0.5 mi Calm Calm - 0.05 in Rain Light Rain
7:55 AM 60.8 °F 59.0 °F 94% 30.03 in 1.0 mi Calm Calm - 0.07 in Rain Rain
8:15 AM 60.8 °F 59.0 °F 94% 30.03 in 1.2 mi Calm Calm - 0.02 in Rain Rain
8:35 AM 62.6 °F 59.0 °F 88% 30.03 in 1.5 mi Calm Calm - 0.02 in Rain Light Rain
8:55 AM 62.6 °F 60.8 °F 94% 30.02 in 4.0 mi Calm Calm - 0.03 in Rain Light Rain
9:15 AM 62.6 °F 60.8 °F 94% 30.01 in 7.0 mi Calm Calm - 0.01 in Rain Rain
9:35 AM 62.6 °F 60.8 °F 94% 30.01 in 4.0 mi Calm Calm - 0.01 in   Light Drizzle
9:55 AM 62.6 °F 60.8 °F 94% 30.00 in 10.0 mi Calm Calm - 0.02 in Rain Light Rain
10:15 AM 62.6 °F 60.8 °F 94% 30.00 in 10.0 mi ESE 3.5 mph - N/A   Light Drizzle
10:35 AM 62.6 °F 60.8 °F 94% 29.98 in 3.0 mi Calm Calm - 0.01 in Rain Light Rain
10:55 AM 62.6 °F 60.8 °F 94% 29.97 in 4.0 mi SE 3.5 mph - 0.02 in   Light Drizzle
11:15 AM 64.4 °F 62.6 °F 94% 29.95 in 3.0 mi Calm Calm - N/A   Overcast
11:35 AM 64.4 °F 62.6 °F 94% 29.94 in 7.0 mi SE 6.9 mph - N/A   Overcast
11:55 AM 64.4 °F 62.6 °F 94% 29.93 in 7.0 mi SSE 8.1 mph - N/A   Overcast
12:15 PM 66.2 °F 62.6 °F 88% 29.92 in 5.0 mi SSE 8.1 mph - N/A   Overcast
12:35 PM 66.2 °F 62.6 °F 88% 29.90 in 10.0 mi SSE 9.2 mph - N/A Rain Light Rain
12:55 PM 66.2 °F 62.6 °F 88% 29.88 in 10.0 mi SSE 5.8 mph - N/A   Light Drizzle
1:15 PM 68.0 °F 62.6 °F 83% 29.86 in 7.0 mi SSE 8.1 mph - N/A   Overcast
1:35 PM 66.2 °F 62.6 °F 88% 29.85 in 7.0 mi SSE 10.4 mph - N/A   Overcast
1:55 PM 66.2 °F 62.6 °F 88% 29.84 in 10.0 mi South 8.1 mph - N/A Rain Light Rain
2:15 PM 66.2 °F 62.6 °F 88% 29.82 in 10.0 mi SSE 8.1 mph - N/A Rain Light Rain
2:35 PM 66.2 °F 62.6 °F 88% 29.79 in 3.0 mi SE 8.1 mph 16.1 mph 0.01 in Rain Light Rain
2:55 PM 66.2 °F 62.6 °F 88% 29.77 in 7.0 mi SE 6.9 mph - 0.01 in   Overcast
3:15 PM 66.2 °F 62.6 °F 88% 29.76 in 2.0 mi SSE 6.9 mph - N/A   Overcast
3:35 PM 66.2 °F 62.6 °F 88% 29.73 in 2.0 mi SSE 4.6 mph - N/A   Overcast
3:55 PM 68.0 °F 62.6 °F 83% 29.73 in 2.5 mi SSE 6.9 mph - N/A   Overcast
4:15 PM 68.0 °F 64.4 °F 88% 29.73 in 4.0 mi South 9.2 mph - N/A   Overcast
4:35 PM 68.0 °F 64.4 °F 88% 29.73 in 5.0 mi South 9.2 mph - N/A   Overcast
4:55 PM 68.0 °F 64.4 °F 88% 29.72 in 5.0 mi South 6.9 mph - 0.01 in Rain Rain
5:15 PM 68.0 °F 64.4 °F 88% 29.71 in 10.0 mi SSE 6.9 mph - N/A Rain Light Rain
5:35 PM 68.0 °F 64.4 °F 88% 29.71 in 10.0 mi South 8.1 mph - N/A Rain Light Rain
5:55 PM 68.0 °F 64.4 °F 88% 29.70 in 10.0 mi South 8.1 mph - N/A   Overcast
6:15 PM 68.0 °F 64.4 °F 88% 29.70 in 10.0 mi South 5.8 mph - N/A   Overcast
6:35 PM 68.0 °F 64.4 °F 88% 29.69 in 10.0 mi SSE 5.8 mph - N/A   Overcast
6:55 PM 68.0 °F 64.4 °F 88% 29.68 in 10.0 mi SSE 6.9 mph - N/A   Overcast
7:15 PM 68.0 °F 64.4 °F 88% 29.67 in 10.0 mi SSE 4.6 mph - N/A   Overcast
7:35 PM 68.0 °F 64.4 °F 88% 29.66 in 10.0 mi SSE 3.5 mph - N/A   Overcast
7:55 PM 66.2 °F 62.6 °F 88% 29.66 in 7.0 mi South 4.6 mph - N/A   Mostly Cloudy
8:15 PM 66.2 °F 62.6 °F 88% 29.65 in 7.0 mi Calm Calm - N/A   Mostly Cloudy
8:35 PM 66.2 °F 64.4 °F 94% 29.65 in 5.0 mi Calm Calm - N/A Rain Light Rain
8:55 PM 68.0 °F 64.4 °F 88% 29.65 in 5.0 mi SSE 3.5 mph - N/A Rain Rain
9:15 PM 68.0 °F 64.4 °F 88% 29.64 in 2.5 mi Calm Calm - 0.10 in Rain Rain
9:35 PM 68.0 °F 64.4 °F 88% 29.62 in 3.0 mi Calm Calm - 0.15 in Rain Rain
9:55 PM 68.0 °F 64.4 °F 88% 29.60 in 2.0 mi Calm Calm - 0.27 in Rain Heavy Rain
10:15 PM 66.2 °F 64.4 °F 94% 29.61 in 1.5 mi NW 5.8 mph - 0.37 in Rain Heavy Rain
10:35 PM 68.0 °F 62.6 °F 83% 29.58 in 10.0 mi Calm Calm - 0.53 in   Overcast
10:55 PM 66.2 °F 62.6 °F 88% 29.58 in 10.0 mi SSE 3.5 mph - 0.53 in   Mostly Cloudy
11:15 PM 64.4 °F 62.6 °F 94% 29.58 in 10.0 mi Calm Calm - N/A   Mostly Cloudy
11:35 PM 66.2 °F 62.6 °F 88% 29.57 in 10.0 mi South 5.8 mph - N/A   Overcast
11:55 PM 66.2 °F 62.6 °F 88% 29.57 in 10.0 mi SSW 4.6 mph - N/A   Overcast